McGregor, MN

5:05 AM CDT on July 28, 2017 (GMT -0500)
McGregor

Weather History for KHZX - March, 2013

Change the Weather History Date:

Sunday, March 31, 2013

  Actual Average (KAIT) Record (KAIT)
Temperature  
Mean Temperature 29 °F -  
Max Temperature 35 °F 45 °F 72 °F (1963)
Min Temperature 23 °F 24 °F -2 °F (1969)
Degree Days  
Heating Degree Days 36    
Moisture  
Dew Point 20 °F    
Average Humidity 66    
Maximum Humidity 93    
Minimum Humidity 48    
Precipitation  
Precipitation 0.00 in - - ()
Sea Level Pressure  
Sea Level Pressure 29.85 in    
Wind  
Wind Speed 10 mph (WNW)    
Max Wind Speed 22 mph    
Max Gust Speed 31 mph    
Visibility 9 miles    
Events      
Averages and records for this station are not official NWS values.
T = Trace of Precipitation, MM = Missing Value Source: NWS Daily Summary

Daily Weather History Graph

Daily Weather History Graph

Search for Another Location

Airport or City:

Trip Planner

Search our weather history database for the weather conditions in past years. The results will help you decide how hot, cold, wet, or windy it might be!

Date:

Astronomy

Mar. 31, 2013 Rise Set
Actual Time 6:54 AM CDT 7:41 PM CDT
Civil Twilight 6:23 AM CDT 8:11 PM CDT
Nautical Twilight 5:47 AM CDT 8:48 PM CDT
Astronomical Twilight 5:09 AM CDT 9:26 PM CDT
Moon 12:02 AM CDT (3/31) 9:26 AM CDT (3/31)
Length of Visible Light 13h 48m
Length of Day
12h 47m
Waning Gibbous, 77% of the Moon is Illuminated
Mar 31
Waning Gibbous
Apr 2
Last Quarter
Apr 10
New
Apr 18
First Quarter
Apr 25
Full

Hourly Weather History & Observations

Time (CDT) Temp. Windchill Dew Point Humidity Pressure Visibility Wind Dir Wind Speed Gust Speed Precip Events Conditions
12:10 AM 35.6 °F 30.7 °F 26.6 °F 70% 29.79 in 10.0 mi West 5.8 mph - N/A   Clear
12:33 AM 35.6 °F 31.7 °F 26.6 °F 70% 29.79 in 10.0 mi West 4.6 mph - N/A   Scattered Clouds
12:53 AM 35.6 °F 30.7 °F 26.6 °F 70% 29.79 in 10.0 mi West 5.8 mph - N/A   Mostly Cloudy
1:08 AM 35.6 °F 30.7 °F 26.6 °F 70% 29.79 in 10.0 mi West 5.8 mph - N/A   Overcast
1:33 AM 33.8 °F 27.7 °F 28.4 °F 81% 29.79 in 10.0 mi West 6.9 mph - N/A   Overcast
1:51 AM 33.8 °F 27.7 °F 26.6 °F 75% 29.79 in 10.0 mi West 6.9 mph - N/A   Overcast
2:01 AM 33.8 °F 25.8 °F 28.4 °F 81% 29.79 in 10.0 mi West 10.4 mph 16.1 mph N/A   Overcast
2:33 AM 35.6 °F 32.8 °F 26.6 °F 70% 29.77 in 10.0 mi WNW 3.5 mph - N/A   Overcast
2:52 AM 35.6 °F 31.7 °F 26.6 °F 70% 29.76 in 10.0 mi West 4.6 mph - N/A   Overcast
3:11 AM 35.6 °F 30.7 °F 26.6 °F 70% 29.76 in 10.0 mi WSW 5.8 mph - N/A   Overcast
3:33 AM 33.8 °F 29.6 °F 28.4 °F 81% 29.75 in 10.0 mi WSW 4.6 mph - N/A   Overcast
3:50 AM 33.8 °F 28.6 °F 28.4 °F 81% 29.75 in 10.0 mi West 5.8 mph - N/A   Overcast
4:12 AM 33.8 °F 29.6 °F 28.4 °F 81% 29.74 in 10.0 mi West 4.6 mph - N/A   Overcast
4:33 AM 33.8 °F 28.6 °F 28.4 °F 81% 29.74 in 10.0 mi West 5.8 mph - N/A   Overcast
4:53 AM 33.8 °F 27.7 °F 28.4 °F 81% 29.73 in 10.0 mi West 6.9 mph - N/A   Overcast
5:13 AM 33.8 °F 28.6 °F 28.4 °F 81% 29.73 in 10.0 mi West 5.8 mph - N/A   Overcast
5:33 AM 33.8 °F 29.6 °F 28.4 °F 81% 29.73 in 10.0 mi West 4.6 mph - N/A   Overcast
5:53 AM 32.0 °F 24.2 °F 28.4 °F 87% 29.73 in 7.0 mi West 9.2 mph 17.3 mph N/A   Overcast
6:12 AM 32.0 °F 26.4 °F 28.4 °F 87% 29.73 in 10.0 mi WNW 5.8 mph - N/A   Overcast
6:32 AM 32.0 °F 25.6 °F 28.4 °F 87% 29.72 in 7.0 mi West 6.9 mph - N/A   Overcast
6:53 AM 32.0 °F 26.4 °F 28.4 °F 87% 29.73 in 5.0 mi West 5.8 mph - N/A   Overcast
7:12 AM 32.0 °F 26.4 °F 28.4 °F 87% 29.73 in 10.0 mi West 5.8 mph - N/A   Overcast
7:33 AM 32.0 °F 25.6 °F 28.4 °F 87% 29.73 in 4.0 mi WNW 6.9 mph - N/A   Overcast
7:51 AM 32.0 °F 24.8 °F 30.2 °F 93% 29.74 in 2.5 mi WNW 8.1 mph - N/A   Overcast
8:13 AM 32.0 °F 23.6 °F 30.2 °F 93% 29.74 in 5.0 mi WNW 10.4 mph 17.3 mph N/A   Overcast
8:32 AM 32.0 °F 22.1 °F 30.2 °F 93% 29.75 in 2.5 mi NW 13.8 mph 18.4 mph N/A   Overcast
8:53 AM 32.0 °F 19.8 °F 28.4 °F 87% 29.76 in 1.2 mi NNW 20.7 mph 28.8 mph N/A   Overcast
9:13 AM 32.0 °F 20.8 °F 26.6 °F 80% 29.77 in 10.0 mi NNW 17.3 mph 25.3 mph N/A   Overcast
9:31 AM 32.0 °F 19.8 °F 21.2 °F 64% 29.77 in 10.0 mi NNW 20.7 mph 25.3 mph N/A   Mostly Cloudy
9:53 AM 32.0 °F 20.8 °F 23.0 °F 69% 29.79 in 10.0 mi NNW 17.3 mph 29.9 mph N/A   Mostly Cloudy
10:13 AM 32.0 °F 20.8 °F 21.2 °F 64% 29.79 in 10.0 mi NW 17.3 mph 26.5 mph N/A   Overcast
10:32 AM 32.0 °F 20.8 °F 21.2 °F 64% 29.80 in 10.0 mi WNW 17.3 mph 20.7 mph N/A   Overcast
10:52 AM 32.0 °F 19.8 °F 19.4 °F 60% 29.81 in 10.0 mi NW 20.7 mph 29.9 mph N/A   Mostly Cloudy
11:13 AM 32.0 °F 19.5 °F 17.6 °F 55% 29.82 in 10.0 mi NNW 21.9 mph 31.1 mph N/A   Scattered Clouds
11:33 AM 32.0 °F 21.6 °F 15.8 °F 51% 29.83 in 10.0 mi NW 15.0 mph 24.2 mph N/A   Scattered Clouds
11:51 AM 32.0 °F 20.5 °F 14.0 °F 48% 29.83 in 10.0 mi NNW 18.4 mph - N/A   Scattered Clouds
12:13 PM 32.0 °F 21.6 °F 15.8 °F 51% 29.84 in 10.0 mi NW 15.0 mph 21.9 mph N/A   Mostly Cloudy
12:33 PM 32.0 °F 21.6 °F 17.6 °F 55% 29.85 in 10.0 mi NW 15.0 mph 23.0 mph N/A   Mostly Cloudy
12:45 PM 32.0 °F 21.2 °F 17.6 °F 55% 29.85 in 10.0 mi NW 16.1 mph 25.3 mph N/A   Mostly Cloudy
1:13 PM 32.0 °F 20.8 °F 17.6 °F 55% 29.85 in 10.0 mi NW 17.3 mph 25.3 mph N/A   Mostly Cloudy
1:33 PM 32.0 °F 21.6 °F 17.6 °F 55% 29.86 in 10.0 mi NNW 15.0 mph 25.3 mph N/A   Mostly Cloudy
1:51 PM 32.0 °F 21.6 °F 15.8 °F 51% 29.86 in 10.0 mi NW 15.0 mph 20.7 mph N/A   Mostly Cloudy
2:13 PM 32.0 °F 22.5 °F 17.6 °F 55% 29.87 in 10.0 mi NW 12.7 mph 25.3 mph N/A   Mostly Cloudy
2:33 PM 32.0 °F 22.1 °F 19.4 °F 60% 29.87 in 10.0 mi NW 13.8 mph 23.0 mph N/A   Overcast
2:53 PM 32.0 °F 21.6 °F 15.8 °F 51% 29.87 in 10.0 mi NW 15.0 mph 23.0 mph N/A   Mostly Cloudy
3:13 PM 32.0 °F 20.8 °F 15.8 °F 51% 29.88 in 10.0 mi NW 17.3 mph 26.5 mph N/A   Mostly Cloudy
3:33 PM 32.0 °F 20.5 °F 14.0 °F 48% 29.88 in 10.0 mi NNW 18.4 mph 27.6 mph N/A   Scattered Clouds
3:53 PM 32.0 °F 20.1 °F 14.0 °F 48% 29.89 in 10.0 mi NW 19.6 mph 24.2 mph N/A   Mostly Cloudy
4:13 PM 32.0 °F 21.6 °F 14.0 °F 48% 29.89 in 10.0 mi WNW 15.0 mph 25.3 mph N/A   Overcast
4:33 PM 32.0 °F 22.5 °F 14.0 °F 48% 29.89 in 10.0 mi WNW 12.7 mph 23.0 mph N/A   Overcast
4:51 PM 32.0 °F 20.5 °F 14.0 °F 48% 29.90 in 10.0 mi NW 18.4 mph 21.9 mph N/A   Mostly Cloudy
5:13 PM 30.2 °F 18.9 °F 14.0 °F 51% 29.90 in 10.0 mi NNW 16.1 mph 23.0 mph N/A   Mostly Cloudy
5:33 PM 30.2 °F 20.2 °F 14.0 °F 51% 29.91 in 10.0 mi NW 12.7 mph 25.3 mph N/A   Mostly Cloudy
5:52 PM 30.2 °F 21.3 °F 14.0 °F 51% 29.92 in 10.0 mi NW 10.4 mph 21.9 mph N/A   Mostly Cloudy
6:13 PM 30.2 °F 20.2 °F 14.0 °F 51% 29.93 in 10.0 mi NNW 12.7 mph 25.3 mph N/A   Mostly Cloudy
6:33 PM 30.2 °F 17.4 °F 14.0 °F 51% 29.94 in 10.0 mi NW 20.7 mph 25.3 mph N/A   Mostly Cloudy
6:53 PM 28.4 °F 16.2 °F 14.0 °F 55% 29.95 in 10.0 mi WNW 17.3 mph 24.2 mph N/A   Overcast
7:13 PM 28.4 °F 16.2 °F 15.8 °F 59% 29.96 in 10.0 mi NW 17.3 mph 24.2 mph N/A   Mostly Cloudy
7:33 PM 28.4 °F 19.7 °F 15.8 °F 59% 29.97 in 10.0 mi NW 9.2 mph - N/A   Scattered Clouds
7:53 PM 28.4 °F 18.0 °F 12.2 °F 51% 29.98 in 10.0 mi NW 12.7 mph 20.7 mph N/A   Mostly Cloudy
8:12 PM 26.6 °F 17.5 °F 14.0 °F 59% 29.99 in 10.0 mi NW 9.2 mph 18.4 mph N/A   Overcast
8:33 PM 26.6 °F 15.7 °F 14.0 °F 59% 29.99 in 10.0 mi NW 12.7 mph 19.6 mph N/A   Overcast
8:53 PM 26.6 °F 14.7 °F 14.0 °F 59% 30.00 in 10.0 mi NW 15.0 mph 18.4 mph N/A   Overcast
9:11 PM 26.6 °F 13.8 °F 14.0 °F 59% 30.01 in 10.0 mi NW 17.3 mph 21.9 mph N/A   Overcast
9:33 PM 26.6 °F 14.7 °F 14.0 °F 59% 30.02 in 10.0 mi NW 15.0 mph 20.7 mph N/A   Overcast
9:53 PM 26.6 °F 13.8 °F 14.0 °F 59% 30.03 in 10.0 mi NW 17.3 mph 21.9 mph N/A   Overcast
10:12 PM 26.6 °F 14.3 °F 14.0 °F 59% 30.03 in 10.0 mi NW 16.1 mph 20.7 mph N/A   Overcast
10:32 PM 24.8 °F 12.9 °F 14.0 °F 64% 30.04 in 10.0 mi NW 13.8 mph 18.4 mph N/A   Overcast
10:53 PM 24.8 °F 15.3 °F 14.0 °F 64% 30.04 in 10.0 mi WNW 9.2 mph 16.1 mph N/A   Overcast
11:13 PM 23.0 °F 11.7 °F 14.0 °F 68% 30.04 in 10.0 mi WNW 11.5 mph 18.4 mph N/A   Mostly Cloudy
11:32 PM 23.0 °F 11.7 °F 14.0 °F 68% 30.05 in 10.0 mi WNW 11.5 mph 17.3 mph N/A   Overcast
11:51 PM 23.0 °F 13.1 °F 12.2 °F 63% 30.05 in 10.0 mi WNW 9.2 mph 17.3 mph N/A   Overcast